CZ-6A R/B

Last updated on Sat Oct 25 2025 00:02:06 GMT+0000 (Coordinated Universal Time)

1 65822U 25220F 25297.27505017 .00000109 00000+0 65551-4 0 9991 2 65822 86.5050 123.2913 0105090 33.5305 327.2461 13.94172810 3738
UTC large
Height (km)
Speed (km/s)
/
Latitude / Longitude
Inclination (degrees)
Orbital Period (minutes)
Azimuth
Elevation
Range (km)
Doppler Factor

Next 0 passes for location: London (51.5072 / 0.1276)

Sorry there are no passes over London.